[Date Prev][Date Next][Thread Prev][Thread Next] - [Date Index][Thread Index][Author Index]

RS-18 Keps 11-19 ~ MIR Keps 11-19




RS-18
1 25533U 98062C   98323.18888093  .00127001  00000-0  89557-3 0 00273
2 25533 051.6641 338.6711 0008429 359.0778 001.0193 15.73122399001236


MIR
1 16609U 86017A   98323.53720729  .00014305  00000-0  11568-3 0  9777
2 16609  51.6600 336.9641 0007934 351.0257 147.2211 15.71085548728425


N6CO
>

----
Via the sarex mailing list at AMSAT.ORG courtesy of AMSAT-NA.
To unsubscribe, send "unsubscribe sarex" to Majordomo@amsat.org



AMSAT Top AMSAT Home